Estación de Tranapuente INIA
Ultimos registro cada 15 minutos 33
| N° | Estación | Fecha / Hora | Temperatura | Humedad | Lluvia | Velocidad | Dirección | Radiación | Presion |
| 33 | Tranapuente INIA | 10-05-2026 08:00 | 4,4 | 87,3 | 0 | 0 | 0 | 7 | 1013 |
| 32 | Tranapuente INIA | 10-05-2026 07:45 | 4,1 | 87,3 | 0 | 0 | 0 | 2 | 1013 |
| 31 | Tranapuente INIA | 10-05-2026 07:30 | 4,3 | 85,1 | 0 | 0 | 0 | 0 | 1013 |
| 30 | Tranapuente INIA | 10-05-2026 07:15 | 3,9 | 85,8 | 0 | 0 | 0 | 0 | 1014 |
| 29 | Tranapuente INIA | 10-05-2026 07:00 | 4,6 | 87,8 | 0 | 0 | 0 | 0 | 1014 |
| 28 | Tranapuente INIA | 10-05-2026 06:45 | 5,7 | 77,5 | 0 | 0 | 0 | 0 | 1013 |
| 27 | Tranapuente INIA | 10-05-2026 06:30 | 4,6 | 78 | 0 | 0 | 0 | 0 | 1013 |
| 26 | Tranapuente INIA | 10-05-2026 06:15 | 5,1 | 88,9 | 0 | 0 | 0 | 0 | 1014 |
| 25 | Tranapuente INIA | 10-05-2026 06:00 | 6,1 | 80,5 | 0 | 0 | 0 | 0 | 1014 |
| 24 | Tranapuente INIA | 10-05-2026 05:45 | 6 | 74,8 | 0 | 0 | 0 | 0 | 1014 |
| 23 | Tranapuente INIA | 10-05-2026 05:30 | 6,3 | 76,8 | 0 | 0 | 0 | 0 | 1014 |
| 22 | Tranapuente INIA | 10-05-2026 05:15 | 6,4 | 66,8 | 0 | 0 | 0 | 0 | 1014 |
| 21 | Tranapuente INIA | 10-05-2026 05:00 | 5,3 | 69,2 | 0 | 0 | 0 | 0 | 1014 |
| 20 | Tranapuente INIA | 10-05-2026 04:45 | 4,7 | 84 | 0 | 0 | 0 | 0 | 1014 |
| 19 | Tranapuente INIA | 10-05-2026 04:30 | 4,6 | 86,8 | 0 | 0 | 0 | 0 | 1014 |
| 18 | Tranapuente INIA | 10-05-2026 04:15 | 4,5 | 91,2 | 0 | 0 | 0 | 0 | 1014 |
| 17 | Tranapuente INIA | 10-05-2026 04:00 | 4,7 | 86,9 | 0 | 0 | 0 | 0 | 1014 |
| 16 | Tranapuente INIA | 10-05-2026 03:45 | 5,4 | 88,9 | 0 | 0 | 0 | 0 | 1014 |
| 15 | Tranapuente INIA | 10-05-2026 03:30 | 5,2 | 77,8 | 0 | 0 | 0 | 0 | 1014 |
| 14 | Tranapuente INIA | 10-05-2026 03:15 | 4,8 | 88 | 0 | 0 | 0 | 0 | 1014 |
| 13 | Tranapuente INIA | 10-05-2026 03:00 | 4,8 | 87,4 | 0 | 0 | 0 | 0 | 1014 |
| 12 | Tranapuente INIA | 10-05-2026 02:45 | 4,7 | 89,8 | 0 | 0 | 0 | 0 | 1014 |
| 11 | Tranapuente INIA | 10-05-2026 02:30 | 4,6 | 91,3 | 0 | 0 | 0 | 0 | 1014 |
| 10 | Tranapuente INIA | 10-05-2026 02:15 | 4,4 | 93 | 0 | 0 | 0 | 0 | 1015 |
| 9 | Tranapuente INIA | 10-05-2026 02:00 | 4,6 | 93,2 | 0 | 0 | 0 | 0 | 1015 |
| 8 | Tranapuente INIA | 10-05-2026 01:45 | 4,9 | 92,1 | 0 | 0 | 0 | 0 | 1015 |
| 7 | Tranapuente INIA | 10-05-2026 01:30 | 4,4 | 93,6 | 0 | 0 | 0 | 0 | 1015 |
| 6 | Tranapuente INIA | 10-05-2026 01:15 | 4,6 | 96,2 | 0 | 0,3 | 329 | 0 | 1015 |
| 5 | Tranapuente INIA | 10-05-2026 01:00 | 4,6 | 94,6 | 0 | 0 | 315 | 0 | 1015 |
| 4 | Tranapuente INIA | 10-05-2026 00:45 | 4,7 | 96,2 | 0 | 0 | 0 | 0 | 1015 |
| 3 | Tranapuente INIA | 10-05-2026 00:30 | 5,2 | 92,5 | 0 | 0 | 0 | 0 | 1015 |
| 2 | Tranapuente INIA | 10-05-2026 00:15 | 5,3 | 93,1 | 0 | 0 | 0 | 0 | 1015 |
| 1 | Tranapuente INIA | 10-05-2026 00:00 | 5,9 | 93,1 | 0 | 0 | 0 | 0 | 1015 |